• Join FlightAware (Why Join?)
  • Login
  • US Flag 
12:01PM EST


 

Airport Tracker/Info


-or-


 

Live Flight TrackerFlight Track Log ✈ ELJ92 ✈ 12-May-2013 ✈ KSRQ - KBHM

Flight Track Log - Related Links

Times and Time Zones

All times are in EDT time to prevent confusion due to time zone crossing. See the ELJ92 flight status page for this flight to view local times or setup timezone preferences in your user account.

Time Position Orientation Groundspeed Altitude Reporting Facility
EDT Latitude Longitude Course Direction KTS MPH feet Rate Location/Type
12:00PM 27.4000 -82.5667 270° West 150 173 800  Level Tampa TRACON
12:01PM 27.4000 -82.6333 270° West 239 275 3,900 3,133 Climbing Tampa TRACON
12:03PM 27.4731 -82.7872 298° West 218 251 11,400 2,985 Climbing Miami Center
12:04PM 27.5503 -82.7911 357° North 223 257 14,000 2,300 Climbing Miami Center
12:05PM 27.6336 -82.7908 360° North 254 292 16,000 2,066 Climbing Miami Center
12:07PM 27.7597 -82.7894 North 310 357 19,200 1,589 Climbing Jacksonville Center
12:08PM 27.8514 -82.7894 360° North 323 372 20,000 1,361 Climbing Jacksonville Center
12:09PM 27.9558 -82.7892 360° North 329 379 21,900 1,900 Climbing Jacksonville Center
12:10PM 28.0539 -82.7892 360° North 334 384 23,800 1,850 Climbing Jacksonville Center
12:11PM 28.1542 -82.7867 North 344 396 25,600 1,866 Climbing Jacksonville Center
12:12PM 28.2542 -82.7889 359° North 354 407 27,500 1,686 Climbing Jacksonville Center
12:13PM 28.3544 -82.7889 360° North 354 407 29,000 1,339 Climbing Jacksonville Center
12:14PM 28.4544 -82.7981 355° North 354 407 30,200 1,513 Climbing Jacksonville Center
12:15PM 28.5528 -82.8194 349° North 359 413 32,000 1,450 Climbing Jacksonville Center
12:16PM 28.6508 -82.8381 351° North 359 413 33,100 1,100 Climbing Jacksonville Center
12:17PM 28.7281 -82.8925 328° Northwest 325 374 34,200 1,050 Climbing Jacksonville Center
12:18PM 28.8094 -82.9519 327° Northwest 331 381 35,200 992 Climbing Jacksonville Center
12:19PM 28.8908 -83.0158 326° Northwest 343 395 36,200 1,000 Climbing Jacksonville Center
12:20PM 28.9742 -83.0778 327° Northwest 353 406 37,200 900 Climbing Jacksonville Center
12:21PM 29.0575 -83.1419 326° Northwest 353 406 38,000 400 Climbing Jacksonville Center
12:22PM 29.1389 -83.2039 326° Northwest 353 406 38,000  Level Jacksonville Center
12:23PM 29.2200 -83.2661 326° Northwest 353 406 38,000  Level Jacksonville Center
12:24PM 29.3014 -83.3283 326° Northwest 353 406 38,000  Level Jacksonville Center
12:25PM 29.3867 -83.3931 327° Northwest 353 406 38,000  Level Jacksonville Center
12:26PM 29.4594 -83.4483 327° Northwest 353 406 38,000  Level Jacksonville Center
12:27PM 29.5447 -83.5133 326° Northwest 353 406 38,000  Level Jacksonville Center
12:28PM 29.6258 -83.5783 325° Northwest 353 406 38,000  Level Jacksonville Center
12:29PM 29.7111 -83.6411 327° Northwest 353 406 38,000  Level Jacksonville Center
12:30PM 29.7922 -83.7039 326° Northwest 353 406 38,000  Level Jacksonville Center
12:31PM 29.8753 -83.7669 327° Northwest 353 406 38,000  Level Jacksonville Center
12:32PM 29.9561 -83.8300 326° Northwest 353 406 38,000  Level Jacksonville Center
12:33PM 30.0372 -83.8906 327° Northwest 353 406 38,000  Level Jacksonville Center
12:34PM 30.1181 -83.9564 325° Northwest 353 406 38,000  Level Jacksonville Center
12:35PM 30.2011 -84.0197 327° Northwest 353 406 38,000  Level Jacksonville Center
12:36PM 30.2819 -84.0833 326° Northwest 353 406 38,000  Level Jacksonville Center
12:37PM 30.3647 -84.1469 326° Northwest 353 406 38,000  Level Jacksonville Center
12:38PM 30.4539 -84.2156 326° Northwest 353 406 38,000  Level Jacksonville Center
12:39PM 30.5344 -84.2794 326° Northwest 353 406 38,000  Level Jacksonville Center
12:40PM 30.6069 -84.3383 325° Northwest 347 399 38,000  Level Jacksonville Center
12:41PM 30.6878 -84.4000 327° Northwest 353 406 38,000  Level Jacksonville Center
12:42PM 30.7683 -84.4642 326° Northwest 353 406 38,000 -650 Level Jacksonville Center
12:43PM 30.8469 -84.5258 326° Northwest 348 400 36,700 -1,450 Descending Jacksonville Center
12:44PM 30.9214 -84.5853 326° Northwest 342 394 35,100 -1,361 Descending Jacksonville Center
12:45PM 30.9956 -84.6447 326° Northwest 331 381 34,000 -545 Descending Jacksonville Center
12:46PM 31.0761 -84.7069 327° Northwest 331 381 34,000  Level Jacksonville Center
12:48PM 31.2286 -84.8306 325° Northwest 337 388 34,000  Level Atlanta Center
12:49PM 31.3075 -84.8919 326° Northwest 343 395 34,000  Level Atlanta Center
12:50PM 31.3864 -84.9558 325° Northwest 343 395 34,000  Level Atlanta Center
12:51PM 31.4631 -85.0175 326° Northwest 337 388 34,000  Level Atlanta Center
12:52PM 31.5397 -85.0792 326° Northwest 337 388 34,000  Level Atlanta Center
12:53PM 31.6164 -85.1386 327° Northwest 337 388 34,000  Level Atlanta Center
12:54PM 31.6953 -85.2031 325° Northwest 337 388 34,000  Level Atlanta Center
12:55PM 31.7697 -85.2628 326° Northwest 337 388 34,000  Level Atlanta Center
12:56PM 31.8464 -85.3247 326° Northwest 337 388 34,000 -850 Level Atlanta Center
12:57PM 31.9250 -85.3872 326° Northwest 337 388 32,300 -1,850 Descending Atlanta Center
12:58PM 32.0036 -85.4519 325° Northwest 337 388 30,300 -1,150 Descending Atlanta Center
12:59PM 32.0842 -85.5144 327° Northwest 337 388 30,000 -750 Descending Atlanta Center
01:00PM 32.1606 -85.5819 323° Northwest 337 388 28,800 -1,000 Descending Atlanta Center
01:01PM 32.2392 -85.6425 327° Northwest 337 388 28,000 -400 Descending Atlanta Center
01:02PM 32.3136 -85.7053 325° Northwest 337 388 28,000 -650 Level Atlanta Center
01:03PM 32.3900 -85.7656 326° Northwest 337 388 26,700 -1,850 Descending Atlanta Center
01:04PM 32.4661 -85.8361 322° Northwest 337 388 24,300 -2,050 Descending Atlanta Center
01:05PM 32.5467 -85.8967 328° Northwest 343 395 22,600 -1,500 Descending Atlanta Center
01:06PM 32.6208 -85.9575 325° Northwest 338 389 21,300 -1,650 Descending Atlanta Center
01:07PM 32.6847 -86.0133 324° Northwest 328 377 19,300 -1,950 Descending Atlanta Center
01:08PM 32.7589 -86.0717 327° Northwest 322 371 17,400 -1,850 Descending Atlanta Center
01:09PM 32.8267 -86.1325 323° Northwest 316 364 15,600 -1,900 Descending Atlanta Center
01:10PM 32.8967 -86.1886 326° Northwest 311 358 13,600 -1,950 Descending Atlanta Center
01:11PM 32.9647 -86.2447 325° Northwest 311 358 11,700 -1,705 Descending Atlanta Center
01:11PM 32.9994 -86.2853 316° Northwest 295 339 11,100 -700 Descending Atlanta Center
01:12PM 33.0325 -86.3036 335° Northwest 311 358 11,000 -65 Descending Atlanta Center
01:13PM 33.1003 -86.3547 328° Northwest 306 352 11,000 -350 Level Atlanta Center
01:14PM 33.1597 -86.4208 317° Northwest 306 352 10,300 -1,538 Descending Atlanta Center
01:14PM 33.1781 -86.4464 311° West 263 303 9,000 -2,900 Descending Atlanta Center
01:15PM 33.2064 -86.4819 314° West 274 315 7,400 -2,412 Descending Atlanta Center
01:16PM 33.2533 -86.5378 315° West 248 285 4,900 -2,100 Descending Atlanta Center
01:17PM 33.2942 -86.5836 317° Northwest 223 257 3,200 -950 Descending Atlanta Center
01:18PM 33.3350 -86.6272 318° Northwest 209 241 3,000 -150 Descending Atlanta Center
01:18PM 33.3492 -86.6550 301° West 195 224 3,000  Level Atlanta Center
01:19PM 33.3897 -86.7033 315° West 198 228 3,000 -155 Level Atlanta Center
01:20PM 33.4308 -86.7319 330° Northwest 194 223 2,700 -303 Descending Atlanta Center
01:21PM 33.4658 -86.7531 333° Northwest 317 365 2,500 -295 Descending Atlanta Center
01:21PM 33.4739 -86.7658 307° West 179 206 2,400 -623 Descending Atlanta Center
01:22PM 33.5131 -86.7894 333° Northwest 152 175 1,700 -694 Descending Atlanta Center
01:23PM 33.5422 -86.7928 355° North 113 130 1,000 -689 Descending Atlanta Center
01:25PM 33.5500 -86.7500 309° West  Level FlightAware Approximate
01:32PM 33.5639 -86.7523 309° West  Level Estimated